Location: Frizzleburg
(41.0764°N, 80.4548°W)
Time: 15:23:09
(UTC+00:00)

Lacrosse 5 - Pass Details

Date: 17 November 2019
Orbit: 715 x 724 km, 57.0° (Epoch: 30 November)

Event Time Altitude Azimuth Distance (km) Brightness Sun altitude
Exits shadow 11:19:32 10° 312° (NW) 2,210 3.8 -10.0°
Reaches altitude 10° 11:19:33 10° 312° (NW) 2,208 3.8 -10.0°
Maximum altitude 11:22:25 15° 347° (NNW) 1,891 3.8 -9.5°
Drops below altitude 10° 11:25:17 10° 22° (NNE) 2,207 4.5 -9.0°
Sets 11:28:44 0° 45° (NE) 3,126 5.6 -8.4°
